Location: Wien
(48.2082°N, 16.3738°E)
Time: 02:11:24
(UTC+02:00)

MOZHAYETS 4 - Pass Details

Date: 28 April 2024
Orbit: 652 x 670 km, 98.3° (Epoch: 23 May)

Event Time Altitude Azimuth Distance (km) Brightness Sun altitude
Rises 02:52:16 0° 126° (SE) 3,011 11.0 -22.1°
Reaches altitude 10° 02:54:53 10° 111° (ESE) 2,102 10.4 -21.8°
Maximum altitude 02:58:22 22° 62° (ENE) 1,468 10.1 -21.5°
Drops below altitude 10° 03:01:52 10° 12° (NNE) 2,111 11.3 -21.2°
Sets 03:04:31 0° 357° (N) 3,027 11.9 -20.9°
